MUC863 LFSB-EDDE

Flight info

Callsign MUC863
Flight time 0h 41m
Altitude 33000
Route ELBEG DCT MOPAN DCT SUNEG DCT LOHRE N746 ROBEL ROBEL1R
Aircraft A20N/M-SDE2E3FGHIRWXY/LB1

Departure

Time 2026-04-17 12:23
Airport EuroAirport Basel–Mulhouse–Freiburg (LFSB)

Arrival

Time 2026-04-17 13:04
Airport Erfurt-Weimar Airport (EDDE)
Time Latitude Longitude Altitude Speed Heading
2026-04-17 11:53 47.59868 7.52808 890 ft 0 kts 65°
2026-04-17 12:13 47.59858 7.52779 890 ft 4 kts 57°
2026-04-17 12:13 47.59842 7.52749 890 ft 4 kts 36°
2026-04-17 12:13 47.59820 7.52735 890 ft 4 kts 344°
2026-04-17 12:13 47.59811 7.52740 890 ft 0 kts 335°
2026-04-17 12:16 47.59818 7.52735 890 ft 1 kts 335°
2026-04-17 12:16 47.59829 7.52728 890 ft 4 kts 335°
2026-04-17 12:16 47.59841 7.52664 890 ft 9 kts 262°
2026-04-17 12:16 47.59872 7.52601 890 ft 9 kts 334°
2026-04-17 12:17 47.59940 7.52556 890 ft 11 kts 335°
2026-04-17 12:17 47.60017 7.52502 890 ft 14 kts 335°
2026-04-17 12:17 47.60110 7.52435 890 ft 16 kts 334°
2026-04-17 12:17 47.60213 7.52362 890 ft 17 kts 334°
2026-04-17 12:18 47.60334 7.52281 885 ft 21 kts 336°
2026-04-17 12:18 47.60479 7.52184 882 ft 24 kts 334°
2026-04-17 12:18 47.60632 7.52073 882 ft 25 kts 334°
2026-04-17 12:18 47.60794 7.51960 881 ft 26 kts 334°
2026-04-17 12:19 47.60965 7.51839 877 ft 28 kts 334°
2026-04-17 12:19 47.61151 7.51711 872 ft 31 kts 335°
2026-04-17 12:19 47.61349 7.51574 867 ft 32 kts 335°
2026-04-17 12:19 47.61556 7.51431 856 ft 33 kts 335°
2026-04-17 12:20 47.61737 7.51306 873 ft 14 kts 335°
2026-04-17 12:20 47.61804 7.51230 873 ft 13 kts 297°
2026-04-17 12:20 47.61797 7.51109 876 ft 10 kts 248°
2026-04-17 12:20 47.61767 7.51031 876 ft 8 kts 225°
2026-04-17 12:21 47.61716 7.51027 875 ft 7 kts 158°
2026-04-17 12:21 47.61708 7.51032 876 ft 0 kts 157°
2026-04-17 12:22 47.61641 7.51078 876 ft 42 kts 150°
2026-04-17 12:22 47.61140 7.51431 870 ft 112 kts 155°
2026-04-17 12:22 47.60267 7.52034 889 ft 162 kts 155°
2026-04-17 12:22 47.59195 7.52776 1383 ft 169 kts 155°
2026-04-17 12:23 47.58133 7.53510 2111 ft 169 kts 155°
2026-04-17 12:23 47.57023 7.54076 2709 ft 176 kts 180°
2026-04-17 12:23 47.55884 7.53360 3102 ft 189 kts 231°
2026-04-17 12:23 47.55479 7.51547 3664 ft 192 kts 276°
2026-04-17 12:24 47.56044 7.49792 4216 ft 194 kts 321°
2026-04-17 12:24 47.57263 7.49018 4768 ft 196 kts 348°
2026-04-17 12:24 47.58670 7.48545 5029 ft 218 kts 349°
2026-04-17 12:24 47.60217 7.48054 5379 ft 236 kts 349°
2026-04-17 12:25 47.61839 7.47537 6110 ft 240 kts 349°
2026-04-17 12:25 47.63480 7.47014 6876 ft 243 kts 351°
2026-04-17 12:25 47.65145 7.47140 7569 ft 244 kts 23°
2026-04-17 12:25 47.66451 7.48708 8138 ft 255 kts 57°
2026-04-17 12:26 47.67158 7.51274 8516 ft 276 kts 76°
2026-04-17 12:26 47.67496 7.54095 9191 ft 286 kts 82°
2026-04-17 12:26 47.67731 7.57057 9966 ft 292 kts 83°
2026-04-17 12:26 47.67971 7.60110 10552 ft 306 kts 82°
2026-04-17 12:27 47.68271 7.63352 10823 ft 329 kts 81°
2026-04-17 12:27 47.68646 7.66823 11037 ft 353 kts 80°
2026-04-17 12:27 47.69195 7.70489 11183 ft 376 kts 70°
2026-04-17 12:27 47.70467 7.73939 11590 ft 386 kts 51°
2026-04-17 12:28 47.72403 7.76705 12213 ft 389 kts 34°
2026-04-17 12:28 47.74778 7.78663 12874 ft 392 kts 25°
2026-04-17 12:28 47.77232 7.80469 13571 ft 394 kts 25°
2026-04-17 12:28 47.79704 7.82277 14200 ft 397 kts 25°
2026-04-17 12:29 47.82202 7.84097 14754 ft 401 kts 25°
2026-04-17 12:29 47.84722 7.85931 15271 ft 405 kts 25°
2026-04-17 12:29 47.87267 7.87786 15810 ft 409 kts 25°
2026-04-17 12:29 47.89800 7.89641 16359 ft 412 kts 25°
2026-04-17 12:30 47.92383 7.91542 16877 ft 416 kts 25°
2026-04-17 12:30 47.94990 7.93465 17382 ft 420 kts 25°
2026-04-17 12:30 47.97623 7.95407 17894 ft 423 kts 25°
2026-04-17 12:30 48.00279 7.97366 18385 ft 427 kts 25°
2026-04-17 12:31 48.02958 7.99345 18832 ft 431 kts 25°
2026-04-17 12:31 48.05652 8.01339 19289 ft 433 kts 25°
2026-04-17 12:31 48.08360 8.03345 19754 ft 435 kts 25°
2026-04-17 12:31 48.11082 8.05358 20216 ft 438 kts 25°
2026-04-17 12:32 48.12891 8.06699 20514 ft 439 kts 25°
2026-04-17 12:32 48.15634 8.08737 20970 ft 441 kts 25°
2026-04-17 12:32 48.18394 8.10791 21406 ft 443 kts 25°
2026-04-17 12:32 48.21152 8.12846 21835 ft 445 kts 25°
2026-04-17 12:33 48.23922 8.14913 22235 ft 446 kts 25°
2026-04-17 12:33 48.26714 8.16989 22666 ft 448 kts 24°
2026-04-17 12:33 48.29527 8.19055 23081 ft 450 kts 24°
2026-04-17 12:33 48.32353 8.21113 23474 ft 452 kts 24°
2026-04-17 12:34 48.35190 8.23178 23830 ft 455 kts 24°
2026-04-17 12:34 48.38041 8.25261 24137 ft 456 kts 24°
2026-04-17 12:34 48.40904 8.27359 24426 ft 458 kts 24°
2026-04-17 12:34 48.43777 8.29466 24727 ft 460 kts 24°
2026-04-17 12:35 48.46660 8.31585 25032 ft 462 kts 24°
2026-04-17 12:35 48.49550 8.33713 25309 ft 463 kts 24°
2026-04-17 12:35 48.52450 8.35854 25599 ft 465 kts 24°
2026-04-17 12:35 48.55363 8.38007 25871 ft 467 kts 24°
2026-04-17 12:37 48.75683 8.53107 28575 ft 462 kts 24°
2026-04-17 12:37 48.78521 8.55230 28996 ft 460 kts 24°
2026-04-17 12:38 48.81389 8.57377 29446 ft 458 kts 24°
2026-04-17 12:38 48.84244 8.59515 29879 ft 457 kts 24°
2026-04-17 12:38 48.87103 8.61658 30292 ft 456 kts 24°
2026-04-17 12:38 48.89948 8.63796 30669 ft 456 kts 24°
2026-04-17 12:39 48.92784 8.65934 31024 ft 454 kts 24°
2026-04-17 12:39 48.95611 8.68061 31393 ft 452 kts 24°
2026-04-17 12:39 48.98424 8.70180 31774 ft 451 kts 24°
2026-04-17 12:39 49.01231 8.72298 32181 ft 448 kts 24°
2026-04-17 12:40 49.04018 8.74405 32582 ft 446 kts 23°
2026-04-17 12:40 49.06797 8.76506 32966 ft 445 kts 23°
2026-04-17 12:40 49.09570 8.78604 33170 ft 444 kts 23°
2026-04-17 12:41 49.15105 8.82786 33203 ft 448 kts 23°
2026-04-17 12:41 49.20688 8.87033 33203 ft 448 kts 23°
2026-04-17 12:42 49.26325 8.91091 33212 ft 446 kts 21°
2026-04-17 12:42 49.31980 8.94989 33209 ft 446 kts 21°
2026-04-17 12:43 49.37627 8.98922 33206 ft 445 kts 21°
2026-04-17 12:43 49.43255 9.02913 33207 ft 445 kts 21°
2026-04-17 12:44 49.48864 9.06920 33195 ft 444 kts 21°
2026-04-17 12:44 49.54469 9.10922 33194 ft 444 kts 21°
2026-04-17 12:45 49.60083 9.14926 33192 ft 444 kts 21°
2026-04-17 12:45 49.65688 9.18939 33202 ft 444 kts 21°
2026-04-17 12:46 49.71296 9.22964 33195 ft 444 kts 21°
2026-04-17 12:46 49.76903 9.27001 33201 ft 444 kts 21°
2026-04-17 12:47 49.82472 9.31032 33216 ft 444 kts 21°
2026-04-17 12:47 49.88119 9.35111 33207 ft 445 kts 21°
2026-04-17 12:48 49.93689 9.39155 33205 ft 445 kts 21°
2026-04-17 12:48 49.99303 9.43237 33201 ft 445 kts 21°
2026-04-17 12:48 50.02112 9.45284 32969 ft 446 kts 21°
2026-04-17 12:49 50.04925 9.47340 32710 ft 447 kts 21°
2026-04-17 12:49 50.07652 9.49702 32314 ft 452 kts 29°
2026-04-17 12:49 50.10258 9.52529 31159 ft 460 kts 32°
2026-04-17 12:49 50.12870 9.55453 30109 ft 464 kts 33°
2026-04-17 12:50 50.15498 9.58430 28870 ft 469 kts 33°
2026-04-17 12:50 50.18137 9.61430 27741 ft 471 kts 33°
2026-04-17 12:50 50.20808 9.64459 26481 ft 476 kts 33°
2026-04-17 12:50 50.23499 9.67508 25231 ft 480 kts 33°
2026-04-17 12:51 50.26214 9.70586 24041 ft 483 kts 33°
2026-04-17 12:51 50.28928 9.73662 23148 ft 478 kts 33°
2026-04-17 12:51 50.31604 9.76694 22312 ft 471 kts 33°
2026-04-17 12:51 50.34240 9.79683 21485 ft 465 kts 33°
2026-04-17 12:52 50.36829 9.82622 20388 ft 454 kts 33°
2026-04-17 12:52 50.39370 9.85512 19263 ft 450 kts 33°
2026-04-17 12:52 50.41900 9.88392 18564 ft 446 kts 33°
2026-04-17 12:52 50.44394 9.91235 18034 ft 440 kts 34°
2026-04-17 12:53 50.46855 9.94039 17513 ft 435 kts 33°
2026-04-17 12:53 50.49297 9.96817 16995 ft 432 kts 33°
2026-04-17 12:53 50.51721 9.99578 16468 ft 429 kts 34°
2026-04-17 12:53 50.54111 10.02310 15857 ft 422 kts 34°
2026-04-17 12:54 50.56469 10.05012 15260 ft 416 kts 34°
2026-04-17 12:54 50.58786 10.07671 14685 ft 410 kts 34°
2026-04-17 12:54 50.61077 10.10300 14186 ft 404 kts 34°
2026-04-17 12:54 50.63321 10.12876 13739 ft 395 kts 34°
2026-04-17 12:55 50.65518 10.15402 13269 ft 388 kts 34°
2026-04-17 12:55 50.67679 10.17895 12793 ft 381 kts 35°
2026-04-17 12:55 50.69798 10.20346 12322 ft 374 kts 35°
2026-04-17 12:55 50.71853 10.22730 11874 ft 368 kts 35°
2026-04-17 12:56 50.73902 10.25106 11438 ft 360 kts 35°
2026-04-17 12:56 50.75900 10.27421 11058 ft 352 kts 35°
2026-04-17 12:56 50.77858 10.29689 10696 ft 345 kts 35°
2026-04-17 12:56 50.79772 10.31907 10336 ft 338 kts 35°
2026-04-17 12:57 50.81653 10.34085 9970 ft 332 kts 35°
2026-04-17 12:57 50.83503 10.36229 9567 ft 327 kts 35°
2026-04-17 12:57 50.85309 10.38328 9240 ft 316 kts 36°
2026-04-17 12:57 50.87059 10.40363 8988 ft 308 kts 36°
2026-04-17 12:58 50.88698 10.42471 8747 ft 300 kts 46°
2026-04-17 12:58 50.89923 10.45094 8489 ft 295 kts 62°
2026-04-17 12:58 50.90652 10.48087 8243 ft 289 kts 73°
2026-04-17 12:58 50.91222 10.51083 8009 ft 287 kts 73°
2026-04-17 12:59 50.91918 10.54089 7694 ft 287 kts 61°
2026-04-17 12:59 50.93168 10.56541 7072 ft 286 kts 38°
2026-04-17 12:59 50.94863 10.58082 6452 ft 279 kts 17°
2026-04-17 12:59 50.96704 10.58809 5819 ft 274 kts 15°
2026-04-17 13:00 50.98412 10.60168 5205 ft 280 kts 38°
2026-04-17 13:00 50.99658 10.62540 4897 ft 276 kts 62°
2026-04-17 13:00 51.00224 10.65361 4566 ft 267 kts 84°
2026-04-17 13:00 51.00144 10.68239 4241 ft 259 kts 97°
2026-04-17 13:01 50.99922 10.71059 3903 ft 257 kts 97°
2026-04-17 13:01 50.99705 10.73861 3561 ft 253 kts 97°
2026-04-17 13:01 50.99494 10.76573 3237 ft 242 kts 97°
2026-04-17 13:01 50.99291 10.79174 2925 ft 233 kts 97°
2026-04-17 13:02 50.99099 10.81633 2619 ft 215 kts 97°
2026-04-17 13:02 50.98923 10.83887 2362 ft 195 kts 96°
2026-04-17 13:02 50.98762 10.85930 2107 ft 180 kts 96°
2026-04-17 13:02 50.98611 10.87830 1835 ft 169 kts 96°
2026-04-17 13:03 50.98466 10.89631 1566 ft 160 kts 96°
2026-04-17 13:03 50.98336 10.91340 1371 ft 154 kts 95°
2026-04-17 13:03 50.98207 10.93007 1174 ft 151 kts 96°
2026-04-17 13:03 50.98072 10.94648 1028 ft 146 kts 96°
2026-04-17 13:04 50.97963 10.96053 1014 ft 105 kts 97°
2026-04-17 13:04 50.97904 10.96816 1018 ft 36 kts 98°
2026-04-17 13:04 50.97868 10.97051 1017 ft 16 kts 136°
2026-04-17 13:04 50.97756 10.97057 1016 ft 17 kts 188°
2026-04-17 13:05 50.97681 10.97021 1016 ft 10 kts 229°
2026-04-17 13:05 50.97678 10.96922 1016 ft 8 kts 275°
2026-04-17 13:05 50.97685 10.96836 1016 ft 7 kts 277°
2026-04-17 13:05 50.97691 10.96761 1016 ft 6 kts 277°
2026-04-17 13:06 50.97696 10.96698 1016 ft 5 kts 277°
2026-04-17 13:06 50.97700 10.96644 1016 ft 5 kts 277°
2026-04-17 13:06 50.97706 10.96572 1016 ft 10 kts 277°
2026-04-17 13:06 50.97715 10.96456 1016 ft 11 kts 276°
2026-04-17 13:07 50.97723 10.96342 1016 ft 10 kts 276°
2026-04-17 13:07 50.97672 10.96250 1016 ft 15 kts 188°
2026-04-17 13:07 50.97596 10.96220 1016 ft 9 kts 221°
2026-04-17 13:07 50.97579 10.96161 1016 ft 0 kts 250°